OneWeb SL0210

operational
NORAD ID: 48787 Int'l Des: 2021-045 Owner: ONEWEBN Country: UK Constellation: oneweb
LEOCIRCULARPOLARONEWEB_TYPE

Über OneWeb SL0210

Beschreibung wird geladen...

Live-Position

3D-Globus wird geladen...

Nächste Überflüge

Höhenverlauf

Altitude vs Time

uPlot chart will show altitude changes over time

Zweizeiliger Elementsatz

1 48787U 21045W 25351.29899282 .00000212 00000-0 52902-3 0 9997
2 48787 87.9003 295.4692 0002485 73.5227 286.6176 13.15550491220403
Epoch: 17. Dez. 2025 • Age: 11 hours

Aktueller Status

Höhe 1229.7 km
Geschwindigkeit 7.24 km/s
Subsatellitenpunkt -70.62°S, 63.72°W
Startdatum 28. Mai 2021
Alter 4.5 years
Typ internet

Technische Details

Klassifizierung Payload
Masse 148.00 kg
Trockenmasse 140.00 kg
Gesamtmasse 148.00 kg
Länge 1.30 m
Durchmesser 1.00 m
Spannweite 5.00 m
Form Trapezoid+2 pan
Hersteller ONEWUS
Bus-Typ ARROW
Phasenstatus In Orbit
Besitzer/Staat ONEWEBN/UK

Große Konstellationen

Loading constellations...